,,,PA_Meas_PMT16A,,PR_Meas_QMR101_102,,RH_Meas_QMH101,,SR_Meas_QMS101,,TA_Meas_QMH101,,GenWind,,GenWind,
date,time,status,PA,status,PR,status,RH,status,SR,status,TA,status,DirAvg,status,SpdAvg,
2010-09-10, 00:00:04,VALID,1005.51,VALID,0,INVALID,122.932,VALID,0,VALID,24.0132,VALID,357,VALID,0.319922,
2010-09-10, 00:01:04,VALID,1005.52,VALID,0,INVALID,123.016,VALID,0,VALID,24.0132,VALID,357,VALID,0.363281,
2010-09-10, 00:02:04,VALID,1005.49,VALID,0,INVALID,123.069,VALID,0,VALID,24.0132,VALID,357,VALID,0.333203,
2010-09-10, 00:03:04,VALID,1005.47,VALID,0,INVALID,123.145,VALID,0,VALID,24.0132,VALID,357,VALID,0.464844,
2010-09-10, 00:04:04,VALID,1005.46,VALID,0,INVALID,123.206,VALID,0,VALID,24.0132,VALID,357,VALID,0.310156,
2010-09-10, 00:05:04,VALID,1005.49,VALID,0,INVALID,123.229,VALID,0,VALID,24.0345,VALID,357,VALID,0.307422,
2010-09-10, 00:06:04,VALID,1005.45,VALID,0,INVALID,123.245,VALID,0,VALID,24.0345,VALID,357,VALID,0.464844,
2010-09-10, 00:07:04,VALID,1005.43,VALID,0,INVALID,123.245,VALID,0,VALID,24.0132,VALID,357,VALID,0.493359,
2010-09-10, 00:08:04,VALID,1005.41,VALID,0,INVALID,123.275,VALID,0,VALID,24.015,VALID,357,VALID,0.167187,
2010-09-10, 00:09:04,VALID,1005.4,VALID,0,INVALID,123.222,VALID,0,VALID,24.0132,VALID,357,VALID,0,
2010-09-10, 00:10:04,VALID,1005.41,VALID,0,INVALID,123.214,VALID,0,VALID,24.0345,VALID,357,VALID,0,
2010-09-10, 00:11:04,VALID,1005.36,VALID,0,INVALID,123.176,VALID,0,VALID,24.0132,VALID,357,VALID,0.00117188,
2010-09-10, 00:12:04,VALID,1005.37,VALID,0,INVALID,123.168,VALID,0,VALID,24.0132,VALID,357,VALID,0.3125,
2010-09-10, 00:13:04,VALID,1005.37,VALID,0,INVALID,123.252,VALID,0,VALID,23.9937,VALID,357,VALID,0.427344,
2010-09-10, 00:14:04,VALID,1005.32,VALID,0,INVALID,123.199,VALID,0,VALID,23.9937,VALID,357,VALID,0.513672,
2010-09-10, 00:15:04,VALID,1005.3,VALID,0,INVALID,123.153,VALID,0,VALID,23.9937,VALID,357,VALID,0.593359,
2010-09-10, 00:16:04,VALID,1005.29,VALID,0,INVALID,123.161,VALID,0,VALID,23.9742,VALID,357,VALID,0.535937,
2010-09-10, 00:17:04,VALID,1005.28,VALID,0,INVALID,123.1,VALID,0,VALID,23.953,VALID,357,VALID,0.539453,
2010-09-10, 00:18:04,VALID,1005.27,VALID,0,INVALID,123.1,VALID,0,VALID,23.9724,VALID,357,VALID,0.641016,
2010-09-10, 00:19:04,VALID,1005.28,VALID,0,INVALID,123.054,VALID,0,VALID,23.9742,VALID,357,VALID,0.469922,
2010-09-10, 00:20:04,VALID,1005.25,VALID,0,INVALID,123.031,VALID,0,VALID,23.9937,VALID,357,VALID,0.521875,
2010-09-10, 00:21:04,VALID,1005.25,VALID,0,INVALID,122.993,VALID,0,VALID,23.9742,VALID,357,VALID,0.548047,
2010-09-10, 00:22:04,VALID,1005.2,VALID,0,INVALID,122.97,VALID,0,VALID,23.9566,VALID,357,VALID,0.427344,
2010-09-10, 00:23:04,VALID,1005.18,VALID,0,INVALID,122.947,VALID,0,VALID,23.9353,VALID,357,VALID,0.573438,
2010-09-10, 00:24:04,VALID,1005.14,VALID,0,INVALID,122.917,VALID,0,VALID,23.9353,VALID,357,VALID,0.607422,
2010-09-10, 00:25:04,VALID,1005.15,VALID,0,INVALID,122.924,VALID,0,VALID,23.9159,VALID,357,VALID,0.553125,
2010-09-10, 00:26:04,VALID,1005.12,VALID,0,INVALID,122.871,VALID,0,VALID,23.9371,VALID,357,VALID,0.415625,
2010-09-10, 00:27:04,VALID,1005.13,VALID,0,INVALID,122.787,VALID,0,VALID,23.9177,VALID,357,VALID,0.416797,
2010-09-10, 00:28:04,VALID,1005.1,VALID,0,INVALID,122.726,VALID,0,VALID,23.9371,VALID,357,VALID,0.373828,
2010-09-10, 00:29:04,VALID,1005.09,VALID,0,INVALID,122.688,VALID,0,VALID,23.9177,VALID,357,VALID,0.397266,
2010-09-10, 00:30:04,VALID,1005.07,VALID,0,INVALID,122.588,VALID,0,VALID,23.9177,VALID,357,VALID,0.421094,
2010-09-10, 00:31:04,VALID,1005.09,VALID,0,INVALID,122.52,VALID,0,VALID,23.8964,VALID,357,VALID,0.453125,
2010-09-10, 00:32:04,VALID,1005.02,VALID,0,INVALID,122.466,VALID,0,VALID,23.9177,VALID,357,VALID,0.591797,
2010-09-10, 00:33:04,VALID,1005.01,VALID,0,INVALID,122.398,VALID,0,VALID,23.8982,VALID,357,VALID,0.540234,
2010-09-10, 00:34:04,VALID,1005,VALID,0,INVALID,122.306,VALID,0,VALID,23.9177,VALID,357,VALID,0.424219,
2010-09-10, 00:35:04,VALID,1005,VALID,0,INVALID,122.192,VALID,0,VALID,23.9177,VALID,357,VALID,0.280078,
2010-09-10, 00:36:04,VALID,1004.98,VALID,0,INVALID,122.077,VALID,0,VALID,23.9566,VALID,357,VALID,0.370313,
2010-09-10, 00:37:04,VALID,1004.95,VALID,0,INVALID,122.016,VALID,0,VALID,23.9566,VALID,357,VALID,0.190625,
2010-09-10, 00:38:04,VALID,1004.94,VALID,0,INVALID,121.932,VALID,0,VALID,23.9761,VALID,357,VALID,0.466406,
2010-09-10, 00:39:04,VALID,1004.93,VALID,0,INVALID,121.902,VALID,0,VALID,23.9742,VALID,10,VALID,0.7625,
2010-09-10, 00:40:04,VALID,1004.92,VALID,0,INVALID,121.887,VALID,0,VALID,23.9548,VALID,17,VALID,0.810156,
2010-09-10, 00:41:04,VALID,1004.92,VALID,0,INVALID,121.879,VALID,0,VALID,23.9955,VALID,14,VALID,0.735937,
2010-09-10, 00:42:04,VALID,1004.92,VALID,0,INVALID,121.848,VALID,0,VALID,24.015,VALID,13,VALID,0.634375,
2010-09-10, 00:43:04,VALID,1004.9,VALID,0,INVALID,121.795,VALID,0,VALID,23.9937,VALID,13,VALID,0.528125,
2010-09-10, 00:44:04,VALID,1004.9,VALID,0,INVALID,121.81,VALID,0,VALID,24.015,VALID,13,VALID,0.539063,
2010-09-10, 00:45:04,VALID,1004.9,VALID,0,INVALID,121.841,VALID,0,VALID,24.0132,VALID,13,VALID,0.392188,
2010-09-10, 00:46:04,VALID,1004.89,VALID,0,INVALID,121.887,VALID,0,VALID,24.0345,VALID,13,VALID,0.162891,
2010-09-10, 00:47:04,VALID,1004.89,VALID,0,INVALID,121.803,VALID,0,VALID,24.0539,VALID,13,VALID,0.455078,
2010-09-10, 00:48:04,VALID,1004.86,VALID,0,INVALID,121.795,VALID,0,VALID,24.0521,VALID,13,VALID,0.470313,
2010-09-10, 00:49:04,VALID,1004.88,VALID,0,INVALID,121.826,VALID,0,VALID,24.0929,VALID,13,VALID,0.308594,
2010-09-10, 00:50:04,VALID,1004.87,VALID,0,INVALID,121.871,VALID,0,VALID,24.0929,VALID,13,VALID,0.639453,
2010-09-10, 00:51:04,VALID,1004.85,VALID,0,INVALID,121.925,VALID,0,VALID,24.1123,VALID,13,VALID,0.589844,
2010-09-10, 00:52:04,VALID,1004.86,VALID,0,INVALID,121.978,VALID,0,VALID,24.091,VALID,13,VALID,0.482812,
2010-09-10, 00:53:04,VALID,1004.84,VALID,0,INVALID,122.024,VALID,0,VALID,24.1142,VALID,13,VALID,0.675781,
2010-09-10, 00:54:04,VALID,1004.83,VALID,0,INVALID,122.062,VALID,0,VALID,24.1123,VALID,13,VALID,0.545703,
2010-09-10, 00:55:04,VALID,1004.84,VALID,0,INVALID,122.077,VALID,0,VALID,24.1123,VALID,13,VALID,0.446094,
2010-09-10, 00:56:04,VALID,1004.82,VALID,0,INVALID,122.093,VALID,0,VALID,24.091,VALID,13,VALID,0.508984,
2010-09-10, 00:57:04,VALID,1004.82,VALID,0,INVALID,122.093,VALID,0,VALID,24.091,VALID,13,VALID,0.429688,
2010-09-10, 00:58:04,VALID,1004.82,VALID,0,INVALID,122.108,VALID,0,VALID,24.0929,VALID,13,VALID,0.515625,
2010-09-10, 00:59:04,VALID,1004.8,VALID,0,INVALID,122.085,VALID,0,VALID,24.0929,VALID,13,VALID,0.445703,
2010-09-10, 01:00:04,VALID,1004.83,VALID,0,INVALID,122.054,VALID,0,VALID,24.0929,VALID,13,VALID,0.500391,
2010-09-10, 01:01:04,VALID,1004.81,VALID,0,INVALID,122.032,VALID,0,VALID,24.0929,VALID,13,VALID,0.348047,
2010-09-10, 01:02:04,VALID,1004.81,VALID,0,INVALID,122.001,VALID,0,VALID,24.1123,VALID,13,VALID,0.346094,
2010-09-10, 01:03:04,VALID,1004.83,VALID,0,INVALID,121.955,VALID,0,VALID,24.1123,VALID,13,VALID,0.271484,
2010-09-10, 01:04:04,VALID,1004.82,VALID,0,INVALID,121.971,VALID,0,VALID,24.0929,VALID,13,VALID,0.484375,
2010-09-10, 01:05:04,VALID,1004.84,VALID,0,INVALID,121.963,VALID,0,VALID,24.1318,VALID,13,VALID,0.369531,
2010-09-10, 01:06:04,VALID,1004.83,VALID,0,INVALID,121.894,VALID,0,VALID,24.1123,VALID,13,VALID,0.317969,
2010-09-10, 01:07:04,VALID,1004.81,VALID,0,INVALID,121.826,VALID,0,VALID,24.0929,VALID,13,VALID,0,
2010-09-10, 01:08:04,VALID,1004.8,VALID,0,INVALID,121.818,VALID,0,VALID,24.1123,VALID,13,VALID,0,
2010-09-10, 01:09:04,VALID,1004.81,VALID,0,INVALID,121.795,VALID,0,VALID,24.1123,VALID,13,VALID,0.248828,
2010-09-10, 01:10:04,VALID,1004.82,VALID,0,INVALID,121.795,VALID,0,VALID,24.091,VALID,13,VALID,0.232031,
2010-09-10, 01:11:04,VALID,1004.81,VALID,0,INVALID,121.742,VALID,0,VALID,24.1105,VALID,13,VALID,0.299219,
2010-09-10, 01:12:04,VALID,1004.81,VALID,0,INVALID,121.742,VALID,0,VALID,24.1318,VALID,13,VALID,0.401172,
2010-09-10, 01:13:04,VALID,1004.77,VALID,0,INVALID,121.711,VALID,0,VALID,24.1105,VALID,13,VALID,0.420312,
2010-09-10, 01:14:04,VALID,1004.79,VALID,0,INVALID,121.734,VALID,0,VALID,24.1105,VALID,13,VALID,0.273828,
2010-09-10, 01:15:04,VALID,1004.8,VALID,0,INVALID,121.726,VALID,0,VALID,24.1123,VALID,13,VALID,0.192969,
2010-09-10, 01:16:04,VALID,1004.78,VALID,0,INVALID,121.696,VALID,0,VALID,24.0929,VALID,13,VALID,0.173047,
2010-09-10, 01:17:04,VALID,1004.76,VALID,0,INVALID,121.589,VALID,0,VALID,24.091,VALID,13,VALID,0,
2010-09-10, 01:18:04,VALID,1004.78,VALID,0,INVALID,121.536,VALID,0,VALID,24.1123,VALID,13,VALID,0.109375,
2010-09-10, 01:19:04,VALID,1004.78,VALID,0,INVALID,121.528,VALID,0,VALID,24.1105,VALID,13,VALID,0.152344,
2010-09-10, 01:20:04,VALID,1004.76,VALID,0,INVALID,121.437,VALID,0,VALID,24.1318,VALID,13,VALID,0.364844,
2010-09-10, 01:21:04,VALID,1004.77,VALID,0,INVALID,121.33,VALID,0,VALID,24.1513,VALID,13,VALID,0.346484,
2010-09-10, 01:22:04,VALID,1004.73,VALID,0,INVALID,121.276,VALID,0,VALID,24.13,VALID,13,VALID,0.346094,
2010-09-10, 01:23:04,VALID,1004.71,VALID,0,INVALID,121.154,VALID,0,VALID,24.1884,VALID,13,VALID,0.546875,
2010-09-10, 01:24:04,VALID,1004.72,VALID,0,INVALID,121.078,VALID,0,VALID,24.1884,VALID,13,VALID,0.0121094,
2010-09-10, 01:25:04,VALID,1004.68,VALID,0,INVALID,121.025,VALID,0,VALID,24.2291,VALID,13,VALID,0,
2010-09-10, 01:26:04,VALID,1004.67,VALID,0,INVALID,121.116,VALID,0,VALID,24.2291,VALID,13,VALID,0,
2010-09-10, 01:27:04,VALID,1004.66,VALID,0,INVALID,121.147,VALID,0,VALID,24.2097,VALID,13,VALID,0,
2010-09-10, 01:28:04,VALID,1004.61,VALID,0,INVALID,121.208,VALID,0,VALID,24.1689,VALID,13,VALID,0,
2010-09-10, 01:29:04,VALID,1004.6,VALID,0,INVALID,121.223,VALID,0,VALID,24.1707,VALID,13,VALID,0.512109,
2010-09-10, 01:30:04,VALID,1004.6,VALID,0,INVALID,121.231,VALID,0,VALID,24.1513,VALID,12,VALID,0.503906,
2010-09-10, 01:31:04,VALID,1004.6,VALID,0,INVALID,121.253,VALID,0,VALID,24.1513,VALID,12,VALID,0.417969,
2010-09-10, 01:32:04,VALID,1004.58,VALID,0,INVALID,121.208,VALID,0,VALID,24.1513,VALID,12,VALID,0.458203,
2010-09-10, 01:33:04,VALID,1004.55,VALID,0,INVALID,121.208,VALID,0,VALID,24.1513,VALID,12,VALID,0.263672,
2010-09-10, 01:34:04,VALID,1004.54,VALID,0,INVALID,121.147,VALID,0,VALID,24.1318,VALID,12,VALID,0.363281,
2010-09-10, 01:35:04,VALID,1004.55,VALID,0,INVALID,121.131,VALID,0,VALID,24.1105,VALID,12,VALID,0.439844,
2010-09-10, 01:36:04,VALID,1004.5,VALID,0,INVALID,121.093,VALID,0,VALID,24.1105,VALID,12,VALID,0.352734,
2010-09-10, 01:37:04,VALID,1004.51,VALID,0,INVALID,121.017,VALID,0,VALID,24.1318,VALID,12,VALID,0.271094,
2010-09-10, 01:38:04,VALID,1004.46,VALID,0,INVALID,120.979,VALID,0,VALID,24.1318,VALID,12,VALID,0.350391,
2010-09-10, 01:39:04,VALID,1004.41,VALID,0,INVALID,120.948,VALID,0,VALID,24.1531,VALID,12,VALID,0.309766,
2010-09-10, 01:40:04,VALID,1004.41,VALID,0,INVALID,120.872,VALID,0,VALID,24.1105,VALID,12,VALID,0.386719,
2010-09-10, 01:41:04,VALID,1004.38,VALID,0,INVALID,120.826,VALID,0,VALID,24.1318,VALID,12,VALID,0.424609,
2010-09-10, 01:42:04,VALID,1004.37,VALID,0,INVALID,120.75,VALID,0,VALID,24.1318,VALID,12,VALID,0.336719,
2010-09-10, 01:43:04,VALID,1004.32,VALID,0,INVALID,120.666,VALID,0,VALID,24.1318,VALID,12,VALID,0.517969,
2010-09-10, 01:44:04,VALID,1004.33,VALID,0,INVALID,120.552,VALID,0,VALID,24.1513,VALID,12,VALID,0.316016,
2010-09-10, 01:45:04,VALID,1004.32,VALID,0,INVALID,120.62,VALID,0,VALID,24.1318,VALID,12,VALID,0.575,
2010-09-10, 01:46:04,VALID,1004.3,VALID,0,INVALID,120.651,VALID,0,VALID,24.1105,VALID,12,VALID,0.3875,
2010-09-10, 01:47:04,VALID,1004.25,VALID,0,INVALID,120.658,VALID,0,VALID,24.091,VALID,12,VALID,0.292188,
2010-09-10, 01:48:04,VALID,1004.23,VALID,0,INVALID,120.59,VALID,0,VALID,24.0716,VALID,12,VALID,0.274609,
2010-09-10, 01:49:04,VALID,1004.22,VALID,0,INVALID,120.521,VALID,0,VALID,24.0929,VALID,12,VALID,0.142188,
2010-09-10, 01:50:04,VALID,1004.21,VALID,0,INVALID,120.285,VALID,0,VALID,24.1105,VALID,12,VALID,0.265625,
2010-09-10, 01:51:04,VALID,1004.16,VALID,0,INVALID,120.048,VALID,0,VALID,24.1902,VALID,8,VALID,0.628125,
2010-09-10, 01:52:04,VALID,1004.18,VALID,0,INVALID,119.888,VALID,0,VALID,24.2097,VALID,345,VALID,0.479688,
2010-09-10, 01:53:04,VALID,1004.15,VALID,0,INVALID,119.827,VALID,0,VALID,24.2486,VALID,341,VALID,0.266406,
2010-09-10, 01:54:04,VALID,1004.18,VALID,0,INVALID,119.789,VALID,0,VALID,24.2681,VALID,341,VALID,0,
2010-09-10, 01:55:04,VALID,1004.15,VALID,0,INVALID,119.819,VALID,0,VALID,24.2486,VALID,341,VALID,0.00078125,
2010-09-10, 01:56:04,VALID,1004.2,VALID,0,INVALID,119.834,VALID,0,VALID,24.2681,VALID,342,VALID,0.405859,
2010-09-10, 01:57:04,VALID,1004.18,VALID,0,INVALID,119.918,VALID,0,VALID,24.2468,VALID,342,VALID,0.332812,
2010-09-10, 01:58:04,VALID,1004.16,VALID,0,INVALID,120.056,VALID,0.100563,VALID,24.2273,VALID,342,VALID,0.246484,
2010-09-10, 01:59:04,VALID,1004.15,VALID,0,INVALID,120.155,VALID,0,VALID,24.2078,VALID,342,VALID,0.225,
2010-09-10, 02:00:04,VALID,1004.13,VALID,0,INVALID,120.246,VALID,0,VALID,24.1884,VALID,342,VALID,0.316016,
2010-09-10, 02:01:04,VALID,1004.13,VALID,0,INVALID,120.368,VALID,0.100563,VALID,24.1689,VALID,342,VALID,0.355859,
2010-09-10, 02:02:04,VALID,1004.12,VALID,0,INVALID,120.422,VALID,0,VALID,24.1281,VALID,341,VALID,0.415625,
2010-09-10, 02:03:04,VALID,1004.06,VALID,0,INVALID,120.307,VALID,0.100563,VALID,24.1281,VALID,355,VALID,0.373828,
2010-09-10, 02:04:04,VALID,1004.05,VALID,0,INVALID,120.094,VALID,0,VALID,24.1865,VALID,355,VALID,0.568359,
2010-09-10, 02:05:04,VALID,1004.04,VALID,0,INVALID,119.903,VALID,0,VALID,24.2857,VALID,356,VALID,0.56875,
2010-09-10, 02:06:04,VALID,1004.02,VALID,0,INVALID,119.789,VALID,0.100563,VALID,24.3246,VALID,354,VALID,0.298828,
2010-09-10, 02:07:04,VALID,1004.01,VALID,0,INVALID,119.705,VALID,0,VALID,24.3636,VALID,349,VALID,0.708594,
2010-09-10, 02:08:04,VALID,1004,VALID,0,INVALID,119.628,VALID,0,VALID,24.4025,VALID,350,VALID,0.479297,
2010-09-10, 02:09:04,VALID,1003.98,VALID,0,INVALID,119.705,VALID,0,VALID,24.4025,VALID,351,VALID,0.466406,
2010-09-10, 02:10:04,VALID,1003.96,VALID,0,INVALID,119.911,VALID,0,VALID,24.422,VALID,351,VALID,0.296875,
2010-09-10, 02:11:04,VALID,1003.94,VALID,0,INVALID,120.17,VALID,0,VALID,24.383,VALID,351,VALID,0.398047,
2010-09-10, 02:12:04,VALID,1003.94,VALID,0,INVALID,120.315,VALID,0,VALID,24.3849,VALID,351,VALID,0.302344,
2010-09-10, 02:13:04,VALID,1003.92,VALID,0,INVALID,120.605,VALID,0,VALID,24.3441,VALID,351,VALID,0.0238281,
2010-09-10, 02:14:04,VALID,1003.89,VALID,0,INVALID,120.796,VALID,0,VALID,24.3052,VALID,351,VALID,0.34375,
2010-09-10, 02:15:04,VALID,1003.89,VALID,0,INVALID,120.91,VALID,0,VALID,24.3052,VALID,347,VALID,0.289453,
2010-09-10, 02:16:04,VALID,1003.88,VALID,0,INVALID,121.025,VALID,0,VALID,24.2857,VALID,345,VALID,0.345313,
2010-09-10, 02:17:04,VALID,1003.88,VALID,0,INVALID,121.108,VALID,0,VALID,24.307,VALID,339,VALID,0.0621094,
2010-09-10, 02:18:04,VALID,1003.9,VALID,0,INVALID,121.139,VALID,0,VALID,24.307,VALID,339,VALID,0.0535156,
2010-09-10, 02:19:04,VALID,1003.86,VALID,0,INVALID,121.185,VALID,0,VALID,24.3459,VALID,339,VALID,0,
2010-09-10, 02:20:04,VALID,1003.91,VALID,0,INVALID,121.261,VALID,0,VALID,24.3441,VALID,339,VALID,0,
2010-09-10, 02:21:04,VALID,1003.89,VALID,0,INVALID,121.292,VALID,0,VALID,24.3654,VALID,339,VALID,0,
2010-09-10, 02:22:04,VALID,1003.89,VALID,0,INVALID,121.33,VALID,0,VALID,24.3849,VALID,339,VALID,0.264453,
2010-09-10, 02:23:04,VALID,1003.88,VALID,0,INVALID,121.314,VALID,0,VALID,24.383,VALID,344,VALID,0.535547,
2010-09-10, 02:24:04,VALID,1003.85,VALID,0,INVALID,121.337,VALID,0,VALID,24.4238,VALID,349,VALID,0.473437,
2010-09-10, 02:25:04,VALID,1003.84,VALID,0,INVALID,121.681,VALID,0,VALID,24.4043,VALID,349,VALID,0.566016,
2010-09-10, 02:26:04,VALID,1003.82,VALID,0,INVALID,121.871,VALID,0,VALID,24.3849,VALID,354,VALID,0.539453,
2010-09-10, 02:27:04,VALID,1003.84,VALID,0,INVALID,122.123,VALID,0,VALID,24.3459,VALID,354,VALID,0.523438,
2010-09-10, 02:28:04,VALID,1003.84,VALID,0,INVALID,122.382,VALID,0,VALID,24.3052,VALID,354,VALID,0.491016,
2010-09-10, 02:29:04,VALID,1003.86,VALID,0,INVALID,122.611,VALID,0.100563,VALID,24.2662,VALID,354,VALID,0.412109,
2010-09-10, 02:30:04,VALID,1003.85,VALID,0,INVALID,122.733,VALID,0.100563,VALID,24.2255,VALID,354,VALID,0.41875,
2010-09-10, 02:31:04,VALID,1003.84,VALID,0,INVALID,122.726,VALID,0,VALID,24.2273,VALID,354,VALID,0.341016,
2010-09-10, 02:32:04,VALID,1003.86,VALID,0,INVALID,122.718,VALID,0.100563,VALID,24.2468,VALID,354,VALID,0.275,
2010-09-10, 02:33:04,VALID,1003.87,VALID,0,INVALID,122.718,VALID,0,VALID,24.2273,VALID,354,VALID,0.459375,
2010-09-10, 02:34:04,VALID,1003.9,VALID,0,INVALID,122.756,VALID,0.100563,VALID,24.1865,VALID,354,VALID,0.321094,
2010-09-10, 02:35:04,VALID,1003.9,VALID,0,INVALID,122.749,VALID,0.100563,VALID,24.1865,VALID,354,VALID,0.265625,
2010-09-10, 02:36:04,VALID,1003.89,VALID,0,INVALID,122.634,VALID,0.100563,VALID,24.1476,VALID,354,VALID,0.202344,
2010-09-10, 02:37:04,VALID,1003.9,VALID,0,INVALID,122.588,VALID,0,VALID,24.1884,VALID,354,VALID,0.377734,
2010-09-10, 02:38:04,VALID,1003.88,VALID,0,INVALID,122.527,VALID,0.100563,VALID,24.1884,VALID,354,VALID,0.145313,
2010-09-10, 02:39:04,VALID,1003.85,VALID,0,INVALID,122.405,VALID,0,VALID,24.1476,VALID,354,VALID,0,
2010-09-10, 02:40:04,VALID,1003.85,VALID,0,INVALID,122.367,VALID,0.100563,VALID,24.1671,VALID,354,VALID,0,
2010-09-10, 02:41:04,VALID,1003.87,VALID,0,INVALID,122.367,VALID,0.100563,VALID,24.1689,VALID,354,VALID,0,
2010-09-10, 02:42:04,VALID,1003.85,VALID,0,INVALID,122.299,VALID,0.100563,VALID,24.1689,VALID,354,VALID,0,
2010-09-10, 02:43:04,VALID,1003.84,VALID,0,INVALID,122.268,VALID,0.100563,VALID,24.1281,VALID,354,VALID,0,
2010-09-10, 02:44:04,VALID,1003.83,VALID,0,INVALID,122.222,VALID,0.100563,VALID,24.1281,VALID,354,VALID,0,
2010-09-10, 02:45:04,VALID,1003.83,VALID,0,INVALID,122.161,VALID,0.100563,VALID,24.1281,VALID,354,VALID,0,
2010-09-10, 02:46:04,VALID,1003.84,VALID,0,INVALID,122.1,VALID,0.100563,VALID,24.13,VALID,354,VALID,0,
2010-09-10, 02:47:04,VALID,1003.81,VALID,0,INVALID,122.024,VALID,0,VALID,24.13,VALID,354,VALID,0,
2010-09-10, 02:48:04,VALID,1003.8,VALID,0,INVALID,121.978,VALID,0,VALID,24.13,VALID,354,VALID,0.0472656,
2010-09-10, 02:49:04,VALID,1003.77,VALID,0,INVALID,121.894,VALID,0.100563,VALID,24.1087,VALID,354,VALID,0.137891,
2010-09-10, 02:50:04,VALID,1003.77,VALID,0,INVALID,121.848,VALID,0.100563,VALID,24.13,VALID,354,VALID,0.128516,
2010-09-10, 02:51:04,VALID,1003.74,VALID,0,INVALID,121.826,VALID,0.100563,VALID,24.13,VALID,354,VALID,0,
2010-09-10, 02:52:04,VALID,1003.74,VALID,0,INVALID,121.765,VALID,0.100563,VALID,24.13,VALID,354,VALID,0,
2010-09-10, 02:53:04,VALID,1003.72,VALID,0,INVALID,121.749,VALID,0.100563,VALID,24.0892,VALID,354,VALID,0,
2010-09-10, 02:54:04,VALID,1003.69,VALID,0,INVALID,121.772,VALID,0,VALID,24.091,VALID,354,VALID,0,
2010-09-10, 02:55:04,VALID,1003.71,VALID,0,INVALID,121.734,VALID,0.100563,VALID,24.0716,VALID,354,VALID,0,
2010-09-10, 02:56:04,VALID,1003.7,VALID,0,INVALID,121.757,VALID,0,VALID,24.0521,VALID,354,VALID,0.146484,
2010-09-10, 02:57:04,VALID,1003.72,VALID,0,INVALID,121.726,VALID,0.100563,VALID,24.0521,VALID,354,VALID,0.470703,
2010-09-10, 02:58:04,VALID,1003.73,VALID,0,INVALID,121.688,VALID,0,VALID,24.0326,VALID,354,VALID,0.324219,
2010-09-10, 02:59:04,VALID,1003.74,VALID,0,INVALID,121.627,VALID,0,VALID,24.0132,VALID,354,VALID,0.234766,
2010-09-10, 03:00:04,VALID,1003.74,VALID,0,INVALID,121.528,VALID,0,VALID,24.0132,VALID,354,VALID,0.308203,
2010-09-10, 03:01:04,VALID,1003.75,VALID,0,INVALID,121.398,VALID,0,VALID,24.0539,VALID,354,VALID,0.344531,
2010-09-10, 03:02:04,VALID,1003.74,VALID,0,INVALID,121.375,VALID,0,VALID,24.0326,VALID,354,VALID,0.423828,
2010-09-10, 03:03:04,VALID,1003.72,VALID,0,INVALID,121.284,VALID,0,VALID,24.0345,VALID,354,VALID,0.283594,
2010-09-10, 03:04:04,VALID,1003.75,VALID,0,INVALID,121.231,VALID,0,VALID,24.0345,VALID,354,VALID,0.337891,
2010-09-10, 03:05:04,VALID,1003.73,VALID,0,INVALID,121.162,VALID,0,VALID,24.0132,VALID,354,VALID,0.321094,
2010-09-10, 03:06:04,VALID,1003.72,VALID,0,INVALID,121.07,VALID,0,VALID,24.015,VALID,354,VALID,0.350781,
2010-09-10, 03:07:04,VALID,1003.67,VALID,0,INVALID,120.994,VALID,0,VALID,24.015,VALID,354,VALID,0.319531,
2010-09-10, 03:08:04,VALID,1003.68,VALID,0,INVALID,120.956,VALID,0,VALID,23.9937,VALID,354,VALID,0.382422,
2010-09-10, 03:09:04,VALID,1003.65,VALID,0,INVALID,120.979,VALID,0,VALID,23.9761,VALID,354,VALID,0.377734,
2010-09-10, 03:10:04,VALID,1003.62,VALID,0,INVALID,120.857,VALID,0,VALID,23.9353,VALID,354,VALID,0.328125,
2010-09-10, 03:11:04,VALID,1003.62,VALID,0,INVALID,120.704,VALID,0,VALID,23.9742,VALID,354,VALID,0.276563,
2010-09-10, 03:12:04,VALID,1003.6,VALID,0,INVALID,120.681,VALID,0,VALID,23.9761,VALID,354,VALID,0.573047,
2010-09-10, 03:13:04,VALID,1003.59,VALID,0,INVALID,120.567,VALID,0,VALID,23.9937,VALID,354,VALID,0.445313,
2010-09-10, 03:14:04,VALID,1003.57,VALID,0,INVALID,120.315,VALID,0,VALID,24.0326,VALID,354,VALID,0.458203,
2010-09-10, 03:15:04,VALID,1003.59,VALID,0,INVALID,120.353,VALID,0,VALID,24.0326,VALID,354,VALID,0.532031,
2010-09-10, 03:16:04,VALID,1003.55,VALID,0,INVALID,120.414,VALID,0,VALID,24.0345,VALID,354,VALID,0.520703,
2010-09-10, 03:17:04,VALID,1003.56,VALID,0,INVALID,120.437,VALID,0,VALID,24.0132,VALID,354,VALID,0.470703,
2010-09-10, 03:18:04,VALID,1003.53,VALID,0,INVALID,120.3,VALID,0.100563,VALID,23.9919,VALID,354,VALID,0.540234,
2010-09-10, 03:19:04,VALID,1003.5,VALID,0,INVALID,120.224,VALID,0,VALID,23.9919,VALID,354,VALID,0.625391,
2010-09-10, 03:20:04,VALID,1003.5,VALID,0,INVALID,120.3,VALID,0.100563,VALID,24.0132,VALID,354,VALID,0.705469,
2010-09-10, 03:21:04,VALID,1003.48,VALID,0,INVALID,120.246,VALID,0,VALID,23.9724,VALID,354,VALID,0.6875,
2010-09-10, 03:22:04,VALID,1003.45,VALID,0,INVALID,119.964,VALID,0.100563,VALID,24.0308,VALID,354,VALID,0.396875,
2010-09-10, 03:23:04,VALID,1003.46,VALID,0,INVALID,119.804,VALID,0.100563,VALID,24.0503,VALID,354,VALID,0.435937,
2010-09-10, 03:24:04,VALID,1003.43,VALID,0,INVALID,119.659,VALID,0,VALID,24.0892,VALID,354,VALID,0.529297,
2010-09-10, 03:25:04,VALID,1003.46,VALID,0,INVALID,119.522,VALID,0,VALID,24.1476,VALID,339,VALID,0.6625,
2010-09-10, 03:26:04,VALID,1003.43,VALID,0,INVALID,119.453,VALID,0.100563,VALID,24.1689,VALID,350,VALID,0.495313,
2010-09-10, 03:27:04,VALID,1003.46,VALID,0,INVALID,119.316,VALID,0.100563,VALID,24.206,VALID,350,VALID,0.357422,
2010-09-10, 03:28:04,VALID,1003.45,VALID,0,INVALID,119.239,VALID,0,VALID,24.2662,VALID,350,VALID,0.141016,
2010-09-10, 03:29:04,VALID,1003.46,VALID,0,INVALID,119.239,VALID,0.100563,VALID,24.2662,VALID,353,VALID,0.541797,
2010-09-10, 03:30:04,VALID,1003.49,VALID,0,INVALID,119.491,VALID,0.100563,VALID,24.2449,VALID,358,VALID,0.613281,
2010-09-10, 03:31:04,VALID,1003.46,VALID,0,INVALID,119.392,VALID,0.100563,VALID,24.2839,VALID,353,VALID,0.398047,
2010-09-10, 03:32:04,VALID,1003.49,VALID,0,INVALID,119.628,VALID,0,VALID,24.2662,VALID,353,VALID,0.466797,
2010-09-10, 03:33:04,VALID,1003.52,VALID,0,INVALID,119.819,VALID,0.100563,VALID,24.2857,VALID,353,VALID,0.251172,
2010-09-10, 03:34:04,VALID,1003.49,VALID,0,INVALID,119.911,VALID,0,VALID,24.2662,VALID,353,VALID,0.585938,
2010-09-10, 03:35:04,VALID,1003.49,VALID,0,INVALID,120.101,VALID,0.100563,VALID,24.2449,VALID,353,VALID,0.415234,
2010-09-10, 03:36:04,VALID,1003.48,VALID,0,INVALID,120.17,VALID,0,VALID,24.2662,VALID,352,VALID,0.503125,
2010-09-10, 03:37:04,VALID,1003.46,VALID,0,INVALID,120.292,VALID,0.100563,VALID,24.2857,VALID,352,VALID,0.415625,
2010-09-10, 03:38:04,VALID,1003.44,VALID,0,INVALID,120.452,VALID,0.100563,VALID,24.2662,VALID,354,VALID,0.577734,
2010-09-10, 03:39:04,VALID,1003.44,VALID,0,INVALID,120.513,VALID,0.100563,VALID,24.2857,VALID,354,VALID,0.436719,
2010-09-10, 03:40:04,VALID,1003.45,VALID,0,INVALID,120.658,VALID,0.100563,VALID,24.2857,VALID,354,VALID,0.534375,